Decoded METAR for EBCV provided by aerobaticsweb.org
Current time: Monday, 25 Jan, 2021, 16:46 UTC
(This may take a minute, please be patient)


The most recent METAR observation from EBCV in our system was generated at 2021/01/25 16:25

Original METAR code

2021/01/25 16:25
EBCV 251625Z AUTO 29006KT 9999 NCD 02/M01 Q1011 BLU
METAR Observation for: EBCV
Date/Time of Observation: 25 January 2021, 16:25 UTC (25 January 2021, 17:25 CET)
METAR Modifier: Automated weather observation
Wind: From 290° at 6 kts (11 km/h)
Visibility: 10 km (6 sm) or greater
Sky Conditions: No clouds
Temperature: 2.0° C (35.6° F)
Dew Point: -1.0° C (30.2° F)
Relative Humidity: 80%
Altimeter: 1011 hPa/mbar (29.86" Hg)
General Outlook: Ceiling >2500 ft / Visibility >8 km

This decoding software is in development. If you see any mistakes in the decoding or an unparsed field that you know how to decode, please complete the Decode report form.

24 Hour Summary

Time (UTC) Temperature
°C (°F)
Dew Point
°C (°F)
Pressure
Inches (hPa)
Wind
mph (km/h)
Weather
00:00 25 January 2 (35 ) 1 (33 ) 29.41 (0996) SSW 7 (11)
01:00 25 January 1 (33 ) 1 (33 ) 29.41 (0996) SW 5 (8)
02:00 25 January 1 (33 ) 1 (33 ) 29.44 (0997) SW 6 (10)
03:00 25 January 1 (33 ) 1 (33 ) 29.47 (0998) SW 5 (8)
04:00 25 January 1 (33 ) 1 (33 ) 29.47 (0998) Variable 1 (2)
05:00 25 January 1 (33 ) 1 (33 ) 29.53 (1000) Variable 1 (2)
06:00 25 January 1 (33 ) 1 (33 ) 29.53 (1000) Variable 2 (3)
07:00 25 January 1 (33 ) 1 (33 ) 29.59 (1002) NNW 7 (11)
08:00 25 January 1 (33 ) 0 (32 ) 29.62 (1003) N 10 (16)
09:00 25 January 2 (35 ) 0 (32 ) 29.68 (1005) N 9 (14)
10:00 25 January 2 (35 ) 0 (32 ) 29.68 (1005) NNW 9 (14)
11:00 25 January 3 (37 ) 0 (32 ) 29.74 (1007) NNW 7 (11)
12:00 25 January 4 (39 ) 0 (32 ) 29.77 (1008) NW 7 (11)
13:00 25 January 4 (39 ) 0 (32 ) 29.77 (1008) NW 6 (10)
14:00 25 January 3 (37 ) 1 (33 ) 29.80 (1009) Variable 1 (2) rain
15:00 25 January 4 (39 ) -1 (30 ) 29.83 (1010) WNW 12 (19)
16:00 25 January 2 (35 ) -1 (30 ) 29.85 (1011) WNW 7 (11)
17:00 24 January 1 (33 ) 0 (32 ) 29.41 (0996) SSE 15 (24) light rain
16:00 25 January No Data
19:00 24 January 1 (33 ) 0 (32 ) 29.38 (0995) light rain
20:00 24 January 1 (33 ) 0 (32 ) 29.38 (0995) SSW 10 (16) light rain
16:00 25 January No Data
22:00 24 January 2 (35 ) 1 (33 ) 29.41 (0996) SSW 9 (14)
23:00 24 January 1 (33 ) 1 (33 ) 29.41 (0996) SW 7 (11) light rain
The information presented here is taken from products produced by the U.S. National Weather Service and other national and international agencies. Landings.com does not present this as official information. Please refer to official weather briefings for flight critical information.


access provided by Dr. Guenther Eichhorn at aerobaticsweb.org